This is the latest recevied weather packets stored in our database for station/object NR0A-4. If no packets are shown the sender has not sent any weather packets the latest 10 day(s).
| Time | Temp. | Humidity | Pressure | Rain* | Wind** | Luminosity | Snow |
|---|---|---|---|---|---|---|---|
| 1777918504 | 21.11° C | 33% | 1004 hPa | 0 mm | - | 870 W/m² | - |
| 1777918204 | 21.11° C | 31% | 1004 hPa | 0 mm | - | 868 W/m² | - |
| 1777917904 | 21.67° C | 30% | 1004 hPa | 0 mm | - | 867 W/m² | - |
| 1777917604 | 21.67° C | 32% | 1003.9 hPa | 0 mm | - | 865 W/m² | - |
| 1777917304 | 21.11° C | 32% | 1004 hPa | 0 mm | - | 861 W/m² | - |
| 1777917004 | 21.11° C | 33% | 1004.1 hPa | 0 mm | - | 861 W/m² | - |
| 1777916704 | 21.11° C | 31% | 1004.1 hPa | 0 mm | - | 858 W/m² | - |
| 1777916404 | 21.11° C | 33% | 1004.1 hPa | 0 mm | - | 860 W/m² | - |
| 1777916104 | 21.11° C | 33% | 1004.2 hPa | 0 mm | - | 853 W/m² | - |
| 1777915804 | 21.11° C | 35% | 1004.1 hPa | 0 mm | - | 847 W/m² | - |
| 1777915504 | 21.11° C | 35% | 1004 hPa | 0 mm | - | 842 W/m² | - |
| 1777915204 | 21.11° C | 36% | 1004.1 hPa | 0 mm | - | 837 W/m² | - |
| 1777914904 | 21.11° C | 38% | 1003.9 hPa | 0 mm | - | 831 W/m² | - |
| 1777914604 | 21.11° C | 37% | 1003.9 hPa | 0 mm | - | 830 W/m² | - |
| 1777914304 | 21.11° C | 39% | 1003.8 hPa | 0 mm | - | 817 W/m² | - |
| 1777914004 | 21.11° C | 41% | 1003.9 hPa | 0 mm | - | 812 W/m² | - |
| 1777913704 | 21.11° C | 41% | 1003.8 hPa | 0 mm | - | 807 W/m² | - |
| 1777913404 | 20.56° C | 43% | 1003.9 hPa | 0 mm | - | 800 W/m² | - |
| 1777913104 | 20.56° C | 42% | 1003.9 hPa | 0 mm | - | 793 W/m² | - |
| 1777912804 | 20.56° C | 42% | 1003.8 hPa | 0 mm | - | 784 W/m² | - |
| 1777912504 | 20.56° C | 44% | 1003.7 hPa | 0 mm | - | 777 W/m² | - |
| 1777912204 | 20.56° C | 45% | 1003.8 hPa | 0 mm | - | 768 W/m² | - |
| 1777911904 | 20.56° C | 46% | 1003.8 hPa | 0 mm | - | 765 W/m² | - |
| 1777911605 | 20.56° C | 48% | 1003.7 hPa | 0 mm | - | 752 W/m² | - |
| 1777911304 | 20° C | 49% | 1003.6 hPa | 0 mm | - | 745 W/m² | - |
* Rain latest hour (hover to see other rain measurements)
** Current wind speed in m/s (hover to see current wind gust speed)